Wind_Speed
35 37 38 37 38 38 39 40 40 41 42 43 43 41 41 41 41 41 41 41 41 40 41 41 40 40 40 39 39 39 38 37 37 36 36 36 35 34 34 34 33 33 33 33
35 36 36 37 39 39 39 40 40 40 42 43 43 42 41 42 42 41 41 41 41 41 41 41 41 40 40 39 39 39 38 38 37 37 36 35 35 34 34 33 32 33 33 33
33 33 34 36 37 39 40 40 40 40 41 42 43 43 42 41 42 42 42 42 41 40 40 40 41 41 40 39 39 39 38 38 38 37 36 35 35 34 34 33 33 32 33 33
31 31 32 33 35 37 38 39 39 40 41 42 42 43 43 42 41 41 41 41 41 40 40 40 40 40 40 40 39 39 39 39 38 38 37 35 35 34 34 33 32 32 32 32
29 29 30 31 32 33 36 37 37 39 41 42 42 43 42 42 41 40 40 40 40 40 39 39 39 39 40 40 40 39 39 38 38 37 36 35 35 34 34 33 32 32 31 31
27 28 28 27 28 31 32 34 35 37 40 42 42 43 42 41 39 39 39 39 39 39 39 39 39 39 39 39 39 39 39 38 38 37 36 35 35 34 34 33 33 33 32 32
26 26 26 27 28 29 30 31 32 35 38 41 41 42 42 40 39 38 38 38 38 39 39 38 39 39 39 39 39 39 39 38 38 38 37 36 35 35 34 33 33 33 33 32
25 26 26 26 27 28 29 31 32 33 36 38 40 41 40 39 38 37 37 38 38 38 38 38 38 38 39 38 38 38 39 38 37 38 37 36 35 35 34 34 33 33 32 32
25 26 25 26 27 28 28 29 31 33 34 35 37 39 39 38 37 37 37 37 37 37 38 38 39 38 38 38 38 38 38 38 37 37 38 37 36 35 35 34 33 33 33 33
23 25 25 26 27 29 29 28 28 31 32 34 35 36 37 36 36 36 36 36 36 36 37 38 38 38 38 38 37 37 38 38 38 37 38 38 37 36 35 34 34 34 34 34
21 23 25 25 28 28 29 30 29 31 32 33 34 35 35 35 35 35 35 36 36 36 36 37 38 38 38 38 38 38 38 38 38 38 37 37 37 36 36 35 35 35 35 35
21 22 23 25 26 28 29 29 29 30 31 33 34 34 33 33 34 35 35 35 35 35 35 36 37 37 38 38 38 38 37 37 38 38 38 37 37 37 36 35 36 35 35 36
22 22 22 24 25 26 28 29 29 29 30 31 32 33 33 33 33 33 34 34 34 35 35 35 36 37 37 37 37 37 37 37 38 38 38 38 37 37 36 36 36 36 36 36
21 23 23 23 24 25 26 28 29 29 30 29 30 30 31 32 32 33 33 33 34 34 34 34 35 36 36 36 37 37 37 38 38 38 38 38 38 37 37 37 37 37 37 36
21 22 23 23 23 24 25 26 27 29 29 30 28 29 29 30 30 31 33 33 33 33 35 35 35 35 37 37 37 37 37 38 38 38 39 39 39 38 38 38 38 38 37 37
21 21 22 23 23 23 24 24 26 28 28 28 28 28 28 29 29 29 30 32 32 32 33 35 35 35 36 36 36 36 37 37 38 38 39 39 39 39 39 38 39 38 38 38
19 20 21 22 22 23 24 24 25 27 27 27 27 27 29 29 29 28 29 30 31 33 33 33 34 35 35 36 36 36 36 37 37 38 38 39 39 39 39 38 38 39 39 39
17 18 20 21 22 23 23 23 24 26 27 28 27 27 29 29 29 29 29 29 30 32 33 33 33 34 35 35 36 36 36 36 37 38 38 38 38 38 39 38 38 38 38 38
16 16 18 20 21 23 22 22 23 25 25 26 26 26 28 29 30 30 29 29 30 31 32 32 33 33 34 35 35 35 35 35 36 37 37 38 38 38 38 38 38 38 38 38
17 16 17 18 20 21 21 22 23 24 24 25 25 25 26 28 29 29 29 28 29 31 31 31 32 33 34 35 35 35 35 35 35 36 37 37 37 38 38 38 38 38 38 38
18 18 18 18 19 20 20 21 22 23 23 24 24 24 25 26 28 29 29 29 29 31 31 31 32 33 34 35 35 35 34 34 34 35 35 36 37 37 38 38 38 38 38 38
18 19 19 19 19 18 19 20 21 22 23 24 24 24 24 25 27 29 29 29 28 29 31 31 32 32 33 34 35 35 34 34 34 33 34 35 36 36 36 37 37 37 37 38
16 17 18 18 17 17 18 20 20 21 22 23 24 23 23 24 25 27 28 28 29 29 30 31 31 32 32 33 33 34 34 33 33 33 33 33 35 35 36 36 36 36 36 36
14 16 17 17 17 17 18 19 20 21 21 22 22 23 23 23 24 26 27 28 29 29 29 29 30 30 31 32 32 33 33 33 32 32 32 33 33 34 35 35 35 35 35 35
13 14 16 18 18 18 19 19 19 20 21 22 22 23 23 23 24 25 26 26 27 28 28 29 29 30 31 31 31 31 31 32 32 32 32 32 32 33 33 34 34 34 35 35
14 14 15 16 17 18 18 19 19 19 20 21 22 22 23 23 24 25 26 26 26 26 27 28 29 29 29 30 30 30 31 31 31 32 32 32 32 32 32 33 33 33 33 33
Wind_Direction
233 233 233 232 233 233 233 232 232 231 230 230 229 229 228 228 228 228 229 230 231 231 232 232 233 234 235 237 237 239 240 242 242 244 246 248 250 252 254 257 259 261 262 264
232 234 233 232 232 231 231 232 232 231 230 230 230 229 228 229 229 229 229 230 231 231 232 233 234 234 235 237 237 238 240 241 242 244 246 248 249 251 253 256 258 260 262 263
233 232 231 231 230 231 230 232 232 232 230 230 230 229 229 229 229 230 230 230 231 232 233 234 235 235 236 236 238 238 240 241 242 244 246 248 249 251 252 255 258 260 262 264
230 230 229 230 230 230 231 232 233 233 231 231 230 230 229 229 230 229 231 231 232 233 233 234 235 235 236 237 237 238 239 241 242 243 245 247 248 250 252 254 258 260 263 264
229 228 228 229 230 231 231 231 232 232 231 231 229 230 229 229 229 229 230 232 232 233 232 233 234 235 236 236 237 238 239 241 242 243 244 246 247 249 251 254 257 260 262 264
230 229 228 229 230 231 231 231 230 231 231 231 229 230 230 229 229 230 231 231 232 233 233 233 233 234 235 237 236 237 239 241 241 241 243 246 248 250 251 254 257 259 262 264
228 227 227 227 228 228 228 228 229 229 230 231 230 231 231 230 230 231 231 232 232 232 233 233 234 235 236 237 237 237 239 240 241 241 243 246 248 250 252 253 256 259 262 264
228 226 225 226 228 228 226 227 228 229 230 231 231 232 231 231 231 232 232 232 232 232 233 233 234 235 237 238 238 237 238 239 240 241 243 245 248 250 252 254 256 258 260 263
228 228 226 228 228 228 226 228 230 231 233 233 233 232 231 231 232 233 233 232 232 232 233 233 234 235 236 238 238 239 239 240 240 241 243 245 247 249 252 253 255 258 260 263
230 230 229 228 227 227 226 228 228 229 232 234 234 234 232 231 232 233 233 233 232 232 233 234 235 236 236 237 237 238 238 239 241 241 243 245 247 249 251 252 255 258 260 263
232 231 230 230 230 228 225 226 228 230 231 233 234 235 233 234 233 234 235 235 234 234 235 236 236 235 235 236 237 237 237 238 240 241 243 245 247 249 250 253 255 257 260 263
233 232 231 232 232 231 230 231 231 231 232 234 236 236 237 237 236 235 235 236 236 235 235 235 235 235 235 235 236 237 237 237 238 239 242 245 247 249 251 253 255 258 261 263
236 233 232 233 233 231 230 230 231 233 235 236 237 238 238 239 238 237 237 237 236 235 235 234 234 235 235 235 236 237 237 238 238 239 242 245 248 250 251 254 256 259 261 264
237 236 234 235 235 235 232 231 232 233 233 235 236 237 238 239 239 238 237 238 237 235 234 234 234 234 234 235 236 237 237 238 239 241 243 245 248 250 252 254 257 260 262 264
234 235 234 234 236 237 236 234 233 233 234 235 234 235 236 238 238 237 236 236 235 234 233 233 233 234 234 235 236 238 239 239 240 242 244 246 248 250 252 255 258 260 262 264
234 235 234 235 236 237 236 234 233 233 235 236 235 235 235 236 235 235 235 234 234 234 233 233 233 234 234 235 237 238 240 241 241 243 244 246 248 250 252 255 258 261 263 265
236 235 235 235 235 239 237 234 235 235 235 237 237 235 234 234 234 233 232 232 232 233 232 232 233 234 234 235 237 239 241 242 243 244 245 247 249 251 253 255 259 261 264 266
235 237 238 238 237 241 238 236 237 237 236 238 238 237 236 234 232 230 230 231 232 231 231 232 233 235 236 237 238 239 241 243 244 245 246 248 250 252 254 256 259 262 265 267
234 240 241 241 242 244 240 238 237 238 237 238 239 238 236 233 232 230 229 230 231 232 231 233 235 235 236 237 238 240 241 244 246 247 248 249 250 253 255 256 259 262 265 268
234 240 244 242 243 245 243 240 239 239 239 237 240 240 237 234 233 231 232 233 233 235 234 234 236 237 238 238 239 240 242 244 246 248 249 250 251 252 254 256 258 262 265 268
239 241 242 243 247 249 244 241 239 240 239 238 239 239 239 238 235 233 235 236 236 236 237 236 237 239 239 239 240 242 243 245 246 248 249 250 252 253 254 256 258 262 265 268
244 244 244 245 249 249 244 240 239 239 238 238 239 240 240 239 237 236 236 238 237 237 238 238 238 239 240 240 241 243 245 246 248 249 250 251 252 254 255 257 259 262 265 268
248 246 246 247 250 250 246 243 242 240 239 239 240 241 242 240 238 237 237 238 238 237 238 239 240 240 240 240 242 244 245 247 249 250 251 253 254 255 256 258 260 263 265 268
254 251 248 248 248 247 247 245 244 243 241 240 242 242 242 243 240 239 239 239 239 239 237 239 240 241 240 241 243 245 246 246 248 250 252 253 255 257 258 260 262 264 266 269
259 257 253 250 249 250 247 248 247 245 244 244 244 243 243 243 241 239 239 240 240 240 239 239 241 242 241 242 245 246 247 247 249 251 253 256 257 259 260 261 264 266 267 268
258 258 259 257 253 251 249 248 247 246 246 246 246 244 242 243 243 242 241 241 242 241 241 241 242 244 244 245 246 247 248 249 250 253 255 257 259 260 261 262 264 266 267 268
Height
5621 5626 5629 5635 5640 5644 5649 5653 5658 5662 5666 5671 5676 5681 5686 5691 5695 5700 5705 5709 5714 5718 5722 5726 5731 5735 5739 5743 5747 5751 5754 5757 5760 5762 5765 5767 5770 5771 5773 5774 5775 5776 5777 5777
5613 5617 5623 5627 5630 5635 5639 5644 5649 5654 5658 5662 5668 5673 5678 5683 5687 5692 5696 5701 5706 5710 5714 5719 5723 5727 5732 5736 5739 5743 5746 5749 5752 5755 5757 5760 5762 5764 5766 5767 5768 5769 5769 5770
5605 5611 5614 5617 5622 5626 5631 5636 5641 5646 5650 5654 5659 5665 5670 5674 5679 5683 5688 5692 5697 5702 5707 5711 5715 5720 5724 5728 5732 5735 5738 5741 5744 5747 5750 5752 5754 5756 5758 5760 5761 5762 5762 5763
5596 5601 5605 5610 5614 5619 5624 5629 5633 5637 5642 5646 5651 5656 5662 5666 5671 5675 5680 5685 5689 5694 5699 5703 5707 5711 5716 5720 5723 5727 5730 5733 5736 5739 5742 5745 5747 5749 5751 5752 5753 5754 5755 5755
5590 5594 5598 5603 5608 5611 5616 5621 5625 5629 5633 5638 5643 5647 5653 5658 5662 5668 5673 5677 5681 5686 5690 5695 5699 5703 5707 5711 5715 5719 5722 5726 5729 5732 5735 5737 5739 5741 5743 5744 5746 5747 5747 5747
5585 5588 5592 5597 5601 5604 5608 5613 5617 5621 5624 5629 5635 5639 5645 5649 5656 5661 5665 5669 5673 5677 5682 5686 5690 5694 5699 5703 5707 5710 5714 5718 5721 5724 5727 5730 5732 5734 5735 5737 5738 5739 5740 5740
5579 5582 5586 5590 5593 5597 5601 5606 5610 5613 5616 5621 5627 5630 5637 5643 5648 5653 5657 5661 5665 5669 5673 5678 5682 5686 5690 5694 5698 5702 5706 5709 5713 5716 5719 5722 5724 5726 5728 5729 5730 5731 5732 5732
5574 5577 5581 5584 5588 5591 5595 5600 5604 5607 5610 5615 5619 5623 5631 5635 5640 5644 5649 5653 5657 5661 5665 5670 5674 5678 5682 5686 5690 5693 5697 5701 5705 5708 5711 5713 5716 5718 5720 5721 5722 5723 5724 5724
5568 5573 5576 5579 5582 5586 5589 5593 5598 5601 5604 5608 5611 5617 5623 5627 5632 5636 5640 5644 5649 5653 5657 5661 5665 5669 5673 5677 5681 5685 5689 5692 5696 5699 5702 5705 5707 5710 5712 5713 5714 5715 5716 5717
5563 5567 5571 5573 5576 5579 5584 5588 5591 5594 5597 5601 5605 5609 5615 5620 5624 5628 5632 5636 5641 5645 5649 5653 5657 5661 5665 5669 5672 5676 5680 5684 5687 5690 5693 5696 5699 5701 5703 5705 5706 5707 5708 5708
5559 5562 5565 5568 5570 5574 5578 5582 5584 5588 5591 5595 5599 5605 5608 5613 5617 5621 5624 5628 5632 5637 5640 5644 5648 5652 5656 5660 5664 5667 5671 5675 5678 5682 5685 5688 5690 5692 5695 5696 5698 5699 5699 5700
5554 5557 5560 5563 5566 5568 5572 5576 5579 5582 5585 5589 5593 5600 5601 5605 5609 5612 5616 5620 5624 5628 5632 5636 5639 5643 5647 5651 5655 5659 5663 5666 5670 5673 5676 5679 5681 5684 5686 5688 5689 5690 5691 5691
5549 5552 5554 5557 5561 5563 5565 5569 5572 5576 5579 5582 5586 5593 5594 5597 5601 5604 5608 5612 5616 5620 5624 5628 5631 5635 5639 5643 5647 5650 5654 5658 5661 5664 5667 5670 5672 5675 5677 5679 5680 5681 5682 5682
5544 5546 5550 5553 5555 5557 5560 5563 5566 5569 5572 5575 5579 5584 5587 5589 5593 5596 5600 5604 5607 5611 5615 5619 5623 5627 5631 5634 5638 5642 5645 5649 5652 5655 5658 5661 5664 5666 5668 5669 5671 5672 5673 5673
5539 5542 5544 5546 5549 5552 5554 5557 5560 5562 5565 5569 5573 5575 5579 5581 5585 5588 5591 5595 5599 5603 5606 5611 5615 5618 5622 5626 5629 5633 5636 5640 5643 5646 5649 5652 5654 5657 5659 5660 5661 5662 5663 5664
5534 5536 5538 5541 5543 5545 5548 5551 5553 5556 5559 5562 5565 5568 5571 5574 5577 5580 5584 5587 5591 5594 5598 5602 5606 5610 5613 5617 5621 5624 5627 5631 5634 5637 5640 5643 5645 5647 5649 5651 5652 5653 5654 5654
5529 5531 5533 5536 5538 5539 5542 5545 5546 5549 5552 5555 5557 5562 5563 5566 5569 5573 5576 5579 5583 5586 5590 5593 5597 5601 5605 5608 5612 5615 5618 5622 5625 5628 5631 5633 5636 5638 5640 5641 5643 5644 5644 5645
5525 5526 5528 5530 5533 5534 5539 5539 5541 5543 5545 5548 5551 5553 5556 5559 5562 5565 5568 5572 5575 5578 5582 5585 5589 5592 5596 5600 5603 5606 5609 5612 5615 5618 5621 5624 5626 5628 5630 5632 5633 5634 5635 5635
5520 5522 5523 5525 5527 5528 5532 5533 5534 5537 5539 5541 5544 5546 5549 5551 5554 5558 5561 5564 5567 5570 5574 5577 5581 5584 5587 5591 5594 5598 5601 5603 5606 5609 5612 5614 5617 5619 5620 5622 5623 5624 5625 5625
5516 5517 5519 5520 5521 5523 5527 5528 5529 5532 5533 5535 5537 5539 5541 5544 5548 5552 5554 5557 5560 5563 5566 5569 5573 5576 5579 5582 5585 5589 5592 5595 5597 5600 5602 5605 5607 5609 5611 5612 5613 5614 5615 5615
5511 5512 5513 5514 5515 5517 5520 5521 5523 5527 5528 5529 5531 5533 5535 5537 5541 5544 5546 5549 5552 5555 5558 5561 5564 5567 5570 5574 5577 5580 5583 5586 5588 5590 5593 5595 5597 5599 5600 5602 5603 5604 5605 5605
5506 5507 5508 5509 5510 5514 5514 5515 5518 5519 5521 5522 5524 5526 5528 5531 5533 5536 5539 5542 5545 5548 5550 5553 5556 5559 5562 5565 5569 5571 5574 5577 5579 5581 5584 5586 5587 5589 5591 5592 5593 5594 5595 5595
5501 5503 5503 5505 5508 5507 5508 5509 5511 5513 5514 5516 5518 5520 5522 5524 5526 5529 5532 5534 5537 5540 5543 5545 5548 5551 5554 5557 5560 5563 5565 5568 5570 5572 5574 5576 5578 5579 5581 5582 5584 5584 5585 5585
5497 5497 5498 5499 5501 5501 5503 5504 5505 5507 5509 5510 5512 5514 5516 5518 5520 5522 5525 5527 5530 5532 5535 5538 5541 5544 5546 5549 5551 5554 5556 5559 5561 5563 5565 5567 5568 5570 5571 5572 5574 5574 5575 5575
5492 5492 5493 5494 5495 5496 5497 5498 5500 5501 5503 5504 5506 5508 5509 5511 5513 5515 5518 5520 5523 5525 5528 5531 5533 5536 5539 5541 5543 5546 5548 5550 5552 5554 5556 5558 5559 5560 5562 5563 5564 5564 5565 5565
5487 5488 5488 5489 5490 5491 5492 5493 5494 5495 5497 5498 5500 5501 5503 5505 5507 5509 5511 5513 5515 5518 5521 5523 5526 5529 5531 5533 5535 5537 5540 5542 5544 5546 5547 5549 5550 5552 5552 5553 5554 5554 5554 5554